FENGYUN 1C DEB

Satellite information

Favourite Embed

Satellite Type and Status

DEBRISIN ORBIT

Key statistics

Satellite FENGYUN 1C DEB at a glance.

Uptime

9714

Days in orbit

Revolutions

≈ 14.5

Per day

Orbit

SSO

Sun Synchronous Orbit

Inclination

98.8

Latest

Satellite identification and parameters

Extended collection of information and parameters for FENGYUN 1C DEB.

Object identification

Identified? True

Debris? True

Object name: FENGYUN 1C DEB

International designator: 1999-025DDZ

Object number (NORAD): 33640

Object ID (CCSDS): 33640

Country: PEOPLES REPUBLIC OF CHINA (PRC)

Current information (Y/N): Y

RCS size: SMALL

Orbital parameters

Period: 99.593 minutes

Inclination: 98.8406 deg

SMA: 7117.242 km

Apoapsis: 803.659 km

Periapsis: 674.555 km

RAAN: 288.5217 deg

Eccentricy: 0.00906976

Argument of periapsis: 162.4466 deg

Mean anomaly: 197.9894 deg

Mean motion: 14.45889666 rev/day

Mean motion (dot): 0.00002744 rev/day2

B* drag term: 0.00074722735 1/REarth

Two-line elements (TLE)

Creation date: Dec. 12, 2025, 3:16 a.m.

Reference frame: TEME

Reference center: EARTH

Epoch: Dec. 11, 2025, 7:22 p.m. UTC

TLE line 0: 0 FENGYUN 1C DEB

TLE line 1: 1 33640U 99025DDZ 25345.80746576 .00002744 00000-0 74723-3 0 9996

TLE line 2: 2 33640 98.8406 288.5217 0090698 162.4466 197.9894 14.45889666923296

Live tracking on map

Real-time ground track for satellite FENGYUN 1C DEB.

In-orbit conjunctions

A list of the most updated potential collisions computed for object FENGYUN 1C DEB.

Target Orbit TCA Probability of collision Miss distance Type
IRIDIUM 28 LEO 2025-02-13 03:19:19 0.0003478477 685.0 (m) PAYLOAD
COSMOS 1867 COOLANT LEO 2024-09-27 11:14:22 0.000112639 761.0 (m) DEBRIS

Associated space launch

Chinese polar orbiting meteorological satellite

FENGYUN 1C DEB was lifted into orbit during the mission ‘Long March 4B | Feng Yun 1C’, on board a Long March 4B space rocket.

The launch took place on May 10, 1999, 1:33 a.m. from Launch Complex 7.

For more information about the launch, click the button.

Launch to space Long March 4B | Feng Yun 1C
Long March 4B | Feng Yun 1C

Agency: N/A

Status: Launch Successful

Launch date: May 10, 1999, 1:33 a.m. UTC

Rocket: Long March 4B

Launch pad: Launch Complex 7

Location: Taiyuan Satellite Launch Center, People's Republic of China

...

Latest news about this satellite

There are no fresh news available about this satellite. Check back as we update our databases every day.


Newsletter sign-up

Weekly statistics, charts and insights to help you stay on top of the space industry.